User: anonymous   Login
Location: Los Gatos B&B
(42.6926°N, 77.0646°W)
Time: 02:18:16
(UTC-05:00)
Language:

SL-16 R/B - Orbit

View from above orbital plane
View from above orbital plane
View from above satellite
View from above satellite

Ground track
Ground track

The orbit data is extracted from the following two-line orbital elements,

1 28353U 04021B   14326.09686729 -.00000219  00000-0 -89827-4 0  8880
2 28353 071.0018 245.6745 0005484 212.1802 275.4502 14.14103559539544
Epoch (UTC): 22 November 2014 02:19:29
Eccentricity: 0.0005484
inclination: 71.0018°
perigee height: 841 km
apogee height: 849 km
right ascension of ascending node: 245.6745°
argument of perigee: 212.1802°
revolutions per day: 14.14103559
mean anomaly at epoch: 275.4502°
orbit number at epoch: 53954

The dashed part of the orbit path shows where the satellite is in the earth's shadow,  

DLR